Champaign, IL

5:54 PM CDT on October 23, 2019 (GMT -0500)
Univ Of Illinois-Willard

Weather History for KCMI - May, 2019

Change the Weather History Date:

Thursday, May 2, 2019

  Actual Average Record
Temperature  
Mean Temperature 58 °F 58 °F  
Max Temperature 66 °F 70 °F 90 °F (2018)
Min Temperature 50 °F 46 °F 32 °F (2005)
Degree Days  
Heating Degree Days 7 8  
Month to date heating degree days 7 16  
Since 1 July heating degree days 5770 5680  
Cooling Degree Days 0 1  
Month to date cooling degree days 0 2  
Year to date cooling degree days 3 13  
Growing Degree Days 9 (Base 50)    
Moisture  
Dew Point 58 °F    
Average Humidity 97    
Maximum Humidity 100    
Minimum Humidity 93    
Precipitation  
Precipitation 0.28 in 0.15 in 0.45 in (1997)
Month to date precipitation 0.33 0.31  
Year to date precipitation 12.47 10.92  
Sea Level Pressure  
Sea Level Pressure 30.05 in    
Wind  
Wind Speed 10 mph (SE)    
Max Wind Speed 21 mph    
Max Gust Speed 26 mph    
Visibility 5 miles    
Events Fog , Rain , Thunderstorm    
T = Trace of Precipitation, MM = Missing Value Source: NWS Daily Summary

Daily Weather History Graph

Daily Weather History Graph

Search for Another Location

Airport or City:

Astronomy

May. 02, 2019 Rise Set
Actual Time 5:52 AM CDT 7:48 PM CDT
Civil Twilight 5:22 AM CDT 8:18 PM CDT
Nautical Twilight 4:46 AM CDT 8:54 PM CDT
Astronomical Twilight 4:08 AM CDT 9:33 PM CDT
Moon 5:04 AM CDT (5/2) 5:35 PM CDT (5/2)
Length of Visible Light 14h 55m
Length of Day
13h 56m
Waning Crescent, 5% of the Moon is Illuminated
May 2
Waning Crescent
May 4
New
May 11
First Quarter
May 18
Full
May 26
Last Quarter

Hourly Weather History & Observations

Time (CDT) Temp. Dew Point Humidity Pressure Visibility Wind Dir Wind Speed Gust Speed Precip Events Conditions
12:53 AM 59.0 °F 59.0 °F 100% 30.07 in 10.0 mi South 6.9 mph - N/A   Mostly Cloudy
1:53 AM 55.9 °F 55.9 °F 100% 30.05 in 5.0 mi SE 5.8 mph - N/A   Clear
2:08 AM 55.9 °F 55.9 °F 100% 30.05 in 1.8 mi SE 5.8 mph - N/A   Clear
2:16 AM 55.9 °F 55.9 °F 100% 30.05 in 0.5 mi ESE 5.8 mph - N/A Fog Fog
2:27 AM 55.0 °F 55.0 °F 100% 30.05 in 0.2 mi SE 6.9 mph - N/A Fog Fog
2:53 AM 57.0 °F 57.0 °F 100% 30.03 in 0.2 mi SE 5.8 mph - N/A Fog Fog
3:08 AM 55.9 °F 55.9 °F 100% 30.03 in 0.5 mi ESE 6.9 mph - N/A Fog Fog
3:15 AM 55.9 °F 55.9 °F 100% 30.03 in 0.2 mi SE 5.8 mph - N/A Fog Fog
3:53 AM 54.0 °F 54.0 °F 100% 30.04 in 0.2 mi East 4.6 mph - N/A Fog Fog
4:16 AM 55.0 °F 55.0 °F 100% 30.05 in 0.2 mi ESE 3.5 mph - N/A Fog Fog
4:30 AM 54.0 °F 54.0 °F 100% 30.04 in 0.2 mi ESE 6.9 mph - N/A Fog Fog
4:42 AM 55.0 °F 55.0 °F 100% 30.04 in 0.2 mi ESE 6.9 mph - N/A Fog Fog
4:53 AM 55.0 °F 55.0 °F 100% 30.04 in 0.2 mi ESE 8.1 mph - N/A Fog Fog
5:35 AM 55.9 °F 55.9 °F 100% 30.03 in 0.2 mi ESE 5.8 mph - N/A Fog Fog
5:53 AM 57.0 °F 57.0 °F 100% 30.03 in 0.1 mi ESE 8.1 mph - N/A Fog Fog
6:45 AM 57.9 °F 57.9 °F 100% 30.05 in 0.1 mi ESE 6.9 mph - N/A Fog Fog
7:36 AM 59.0 °F 59.0 °F 100% 30.06 in 0.1 mi SE 11.5 mph - 0.03 in Fog , Rain Rain
7:53 AM 59.0 °F 59.0 °F 100% 30.06 in 1.0 mi SE 11.5 mph - 0.04 in Rain , Thunderstorm Light Rain
8:14 AM 59.0 °F 59.0 °F 100% 30.08 in 3.0 mi South 13.8 mph - 0.01 in Rain Light Rain
8:53 AM 60.1 °F 60.1 °F 100% 30.08 in 5.0 mi SSW 6.9 mph - 0.04 in Rain Light Rain
9:36 AM 61.0 °F 61.0 °F 100% 30.08 in 7.0 mi SSW 4.6 mph - 0.01 in Rain Light Rain
9:53 AM 62.1 °F 61.0 °F 96% 30.07 in 6.0 mi SSE 6.9 mph - 0.01 in   Overcast
10:35 AM 62.1 °F 62.1 °F 100% 30.07 in 6.0 mi SSE 11.5 mph - 0.00 in Rain Light Rain
10:46 AM 62.1 °F 62.1 °F 100% 30.08 in 2.5 mi SSE 13.8 mph - 0.02 in Rain Rain
10:53 AM 62.1 °F 62.1 °F 100% 30.08 in 2.0 mi South 11.5 mph - 0.04 in Rain Rain
11:07 AM 62.1 °F 62.1 °F 100% 30.06 in 3.0 mi SSE 12.7 mph - 0.05 in Rain Rain
11:53 AM 64.0 °F 63.0 °F 96% 30.05 in 10.0 mi SSE 16.1 mph - 0.07 in Rain Light Rain
12:53 PM 64.9 °F 64.0 °F 97% 30.05 in 10.0 mi South 15.0 mph - 0.01 in   Overcast
1:02 PM 64.9 °F 64.0 °F 97% 30.05 in 10.0 mi South 17.3 mph - N/A   Overcast
1:53 PM 64.9 °F 64.0 °F 97% 30.05 in 10.0 mi SSW 17.3 mph 25.3 mph 0.00 in Rain Light Rain
2:05 PM 64.9 °F 64.0 °F 97% 30.06 in 9.0 mi SSW 15.0 mph 24.2 mph 0.01 in Rain Light Rain
2:35 PM 64.9 °F 64.0 °F 97% 30.05 in 8.0 mi SW 12.7 mph - 0.03 in Rain Light Rain
2:42 PM 64.9 °F 64.0 °F 97% 30.05 in 8.0 mi SW 11.5 mph - 0.03 in Rain Light Rain
2:53 PM 64.9 °F 64.0 °F 97% 30.04 in 6.0 mi WSW 10.4 mph - 0.04 in Rain Light Rain
3:53 PM 64.9 °F 64.0 °F 97% 30.01 in 10.0 mi SW 10.4 mph - 0.03 in Rain Light Rain
4:53 PM 66.0 °F 64.0 °F 93% 30.01 in 10.0 mi SW 12.7 mph - 0.00 in   Mostly Cloudy
5:53 PM 61.0 °F 60.1 °F 97% 30.01 in 10.0 mi NW 11.5 mph - N/A   Overcast
6:00 PM 61.0 °F 59.0 °F 93% 30.01 in 10.0 mi NNW 8.1 mph - N/A   Overcast
6:53 PM 57.9 °F 57.0 °F 97% 30.03 in 10.0 mi NNW 6.9 mph - N/A   Overcast
7:16 PM 57.0 °F 55.9 °F 96% 30.03 in 10.0 mi NNW 9.2 mph - N/A   Overcast
7:31 PM 57.0 °F 55.0 °F 93% 30.03 in 10.0 mi North 11.5 mph - N/A   Mostly Cloudy
7:53 PM 55.9 °F 55.0 °F 97% 30.04 in 10.0 mi North 10.4 mph - N/A   Overcast
8:01 PM 57.0 °F 55.9 °F 96% 30.04 in 10.0 mi North 9.2 mph - N/A   Overcast
8:53 PM 55.9 °F 55.0 °F 97% 30.05 in 7.0 mi North 8.1 mph - N/A   Overcast
9:53 PM 54.0 °F 53.1 °F 97% 30.06 in 6.0 mi North 11.5 mph - N/A   Overcast
10:20 PM 54.0 °F 53.1 °F 97% 30.06 in 4.0 mi North 11.5 mph - N/A   Overcast
10:53 PM 53.1 °F 52.0 °F 96% 30.06 in 4.0 mi North 12.7 mph - N/A   Overcast
11:07 PM 52.0 °F 51.1 °F 97% 30.07 in 7.0 mi North 10.4 mph - N/A   Overcast
11:53 PM 51.1 °F 50.0 °F 96% 30.06 in 6.0 mi NNE 11.5 mph - N/A   Overcast